{"data":{"norad_id":66081,"epoch":"2026-05-24T17:42:56.792448Z","epoch_age_seconds":91498,"freshness":"FRESH","line1":"1 66081U 25235Z   26144.73815732  .00021550  00000+0  70448-3 0  9999","line2":"2 66081  53.1562 251.4040 0001179  66.0495 294.0629 15.31687381 34573","mean_motion":15.31687381,"eccentricity":0.0001179,"inclination_deg":53.1562,"raan_deg":251.404,"arg_perigee_deg":66.0495,"mean_anomaly_deg":294.0629,"bstar":0.00070448,"rev_number":3457,"period_min":94.013962500616,"perigee_km":469.9701250335,"apogee_km":471.58509909903,"semimajor_km":6848.9146120663,"source":"CELESTRAK","updated_at":"2026-05-25T13:38:21.025372Z"}}